Location: Beddau
(51.5575°N, 3.3561°W)
Time: 13:48:38
(UTC+00:00)

Cosmos 1666 - Pass Details

Date: 03 March 2021
Orbit: 497 x 518 km, 82.5° (Epoch: 10 April)

Event Time Altitude Azimuth Distance (km) Brightness Sun altitude
Rises 20:04:46 0° 195° (SSW) 2,576 6.2 -20.4°
Reaches altitude 10° 20:06:53 10° 198° (SSW) 1,699 5.3 -20.7°
Maximum altitude 20:10:35 69° 281° (W) 540 2.9 -21.3°
Drops below altitude 10° 20:14:20 10° 6° (N) 1,720 5.5 -21.8°
Sets 20:16:29 0° 9° (N) 2,612 6.4 -22.1°
